TimeSAST,TemperatureF,Dew PointF,Humidity,Sea Level PressureIn,VisibilityMPH,Wind Direction,Wind SpeedMPH,Gust SpeedMPH,PrecipitationIn,Events,Conditions,WindDirDegrees,DateUTC
12:00 AM,60.8,57.2,88,30.04,6.2,WNW,6.9,-,N/A,,Mostly Cloudy,300,2012-11-09 22:00:00
1:00 AM,59.0,55.4,88,30.04,-9999.0,NNW,6.9,-,N/A,,Clear,330,2012-11-09 23:00:00
2:00 AM,57,52,79,30.02,6,NW,3.5,,,,,310,2012-11-10 00:00:00
2:00 AM,57.2,51.8,82,30.01,-9999.0,NW,3.5,-,N/A,,Clear,310,2012-11-10 00:00:00
3:00 AM,57.2,51.8,82,30.01,-9999.0,NNW,3.5,-,N/A,,Clear,330,2012-11-10 01:00:00
4:00 AM,55.4,50.0,82,30.01,-9999.0,NNW,3.5,-,N/A,,Clear,330,2012-11-10 02:00:00
5:00 AM,53,49,84,30.02,12,NW,3.5,,,,,320,2012-11-10 03:00:00
5:00 AM,53.6,50.0,88,30.01,-9999.0,NW,3.5,-,N/A,,Clear,320,2012-11-10 03:00:00
6:00 AM,53.6,50.0,88,30.04,-9999.0,NNW,2.3,-,N/A,,Clear,330,2012-11-10 04:00:00
7:00 AM,59.0,53.6,82,30.04,-9999.0,Variable,2.3,-,N/A,,Clear,0,2012-11-10 05:00:00
8:00 AM,65,57,68,30.06,12,SSE,2.3,,,,Scattered Clouds,150,2012-11-10 06:00:00
8:00 AM,64.4,59.0,83,30.04,6.2,Variable,2.3,-,N/A,,Partly Cloudy,0,2012-11-10 06:00:00
9:00 AM,68.0,57.2,68,30.04,6.2,Variable,3.5,-,N/A,,Partly Cloudy,0,2012-11-10 07:00:00
10:00 AM,68.0,59.0,73,30.04,6.2,SE,8.1,-,N/A,,Partly Cloudy,130,2012-11-10 08:00:00
11:00 AM,69,58,59,30.04,12,SSE,6.9,,,,Scattered Clouds,150,2012-11-10 09:00:00
11:00 AM,69.8,59.0,68,30.04,6.2,SSE,8.1,-,N/A,,Partly Cloudy,150,2012-11-10 09:00:00
12:00 PM,71.6,59.0,64,30.01,6.2,SE,11.5,-,N/A,,Partly Cloudy,140,2012-11-10 10:00:00
1:00 PM,71.6,60.8,69,29.98,6.2,SE,10.4,-,N/A,,Partly Cloudy,130,2012-11-10 11:00:00
2:00 PM,72,58,52,29.96,12,ESE,12.7,,,,Scattered Clouds,120,2012-11-10 12:00:00
2:00 PM,71.6,57.2,60,29.98,6.2,East,10.4,-,N/A,,Partly Cloudy,100,2012-11-10 12:00:00
3:00 PM,69.8,57.2,64,29.95,6.2,East,11.5,-,N/A,,Partly Cloudy,100,2012-11-10 13:00:00
4:00 PM,69.8,57.2,64,29.92,-9999.0,East,12.7,-,N/A,,Clear,100,2012-11-10 14:00:00
5:00 PM,68,58,62,29.93,12,ESE,13.8,,,,,110,2012-11-10 15:00:00
5:00 PM,68.0,57.2,68,29.95,-9999.0,East,9.2,-,N/A,,Clear,100,2012-11-10 15:00:00
6:00 PM,64.4,57.2,77,29.95,-9999.0,East,10.4,-,N/A,,Clear,100,2012-11-10 16:00:00
7:00 PM,62.6,57.2,82,29.95,-9999.0,ESE,5.8,-,N/A,,Clear,120,2012-11-10 17:00:00
8:00 PM,60,57,85,29.96,12,ESE,4.6,,,,,120,2012-11-10 18:00:00
8:00 PM,59.0,57.2,94,29.95,-9999.0,ESE,4.6,-,N/A,,Clear,110,2012-11-10 18:00:00
9:00 PM,59.0,57.2,94,29.95,-9999.0,ENE,5.8,-,N/A,,Clear,60,2012-11-10 19:00:00
10:00 PM,59.0,57.2,94,29.95,-9999.0,Calm,Calm,-,N/A,,Clear,0,2012-11-10 20:00:00
11:00 PM,57.2,55.4,94,29.92,3.7,West,3.5,-,N/A,,Unknown,270,2012-11-10 21:00:00